Location: Charlottesville
(38.0290°N, 78.4770°W)
Time: 18:28:28
(UTC-04:00)

Tiangong 2 - Pass Details

Date: 09 October 2017
Orbit: 388 x 392 km, 42.8° (Epoch: 17 October)

Event Time Altitude Azimuth Distance (km) Brightness Sun altitude
Exits shadow 06:28:25 15° 256° (WSW) 1,139 2.8 -10.4°
Maximum altitude 06:30:55 71° 339° (NNW) 415 1.1 -9.9°
Drops below altitude 10° 06:34:07 10° 65° (ENE) 1,424 5.1 -9.3°
Sets 06:36:13 0° 68° (ENE) 2,282 6.4 -8.9°
